Wind_Speed
31 30 29 30 31 33 34 35 35 35 35 35 34 34 35 35 36 36 36 35 34 33 32 31 31 31 32 34 36 37 37 38 37 37 37 38 38 39 40 40 40 40 39 39 39 40 40 41 42 42 42 42 41 40 39 38 39 39 40 40 39 38 37 38 39 39 39 39 38 37 36 36 35 34 34 33 33 32 32 31 31 30 30 30 30 30
30 30 30 31 31 31 32 34 34 34 35 36 36 36 35 36 36 36 35 34 33 32 31 30 31 32 34 36 37 37 36 36 36 36 37 37 38 39 40 40 40 40 39 39 39 40 41 41 42 42 42 43 41 40 38 38 39 40 40 40 39 38 37 37 38 39 40 39 38 36 36 35 34 34 33 33 33 32 32 31 30 29 29 29 30 30
29 30 30 30 29 28 29 32 34 35 36 37 37 37 36 36 36 35 33 32 31 31 31 31 32 34 35 36 36 35 33 33 34 35 36 38 39 40 41 41 41 40 40 40 40 41 42 43 43 43 43 42 40 39 39 40 41 41 41 40 39 38 37 36 36 37 38 38 37 36 35 34 33 33 32 32 32 31 31 30 29 29 29 29 29 29
27 28 29 29 28 28 29 32 35 37 37 37 37 37 37 36 34 33 31 31 31 32 32 33 33 33 33 34 33 32 31 32 33 35 37 39 40 41 42 42 42 42 42 41 42 43 44 44 44 43 42 41 40 40 41 42 42 42 41 40 39 38 37 36 36 36 37 36 35 34 34 33 33 32 31 31 31 30 29 29 28 28 29 29 29 29
28 29 29 28 27 28 31 33 35 36 36 36 36 36 36 34 33 32 32 32 31 31 32 33 33 33 32 31 31 31 31 33 35 37 39 40 42 43 44 44 44 44 43 43 43 44 44 44 44 43 42 42 42 42 42 43 42 41 40 39 38 38 38 38 37 37 36 35 35 34 33 32 32 31 31 30 29 29 28 28 28 28 29 29 29 30
31 30 29 27 26 28 30 33 34 34 34 34 34 34 33 33 32 32 31 29 29 29 30 32 33 32 31 30 30 31 33 35 37 39 40 41 43 44 45 46 45 44 43 43 43 43 43 43 44 43 43 43 43 42 42 41 40 39 38 37 37 37 37 38 38 37 35 34 34 33 32 32 31 31 30 29 29 28 28 27 28 28 28 29 29 30
31 30 28 27 28 29 31 32 32 31 30 29 30 31 31 31 31 29 27 25 26 27 30 32 32 31 29 29 29 31 34 37 38 40 40 41 42 44 44 44 42 41 41 42 42 43 43 43 42 42 42 42 41 41 39 38 37 36 36 35 35 35 36 37 37 36 35 33 33 33 33 33 32 32 31 29 28 28 27 27 27 28 28 28 29 30
30 28 24 24 27 31 32 32 31 30 29 28 28 28 29 29 27 24 23 24 26 28 29 29 29 28 27 28 29 31 34 36 37 38 38 39 40 40 40 39 39 39 40 41 42 43 42 42 41 41 41 40 40 39 38 36 35 34 34 33 33 34 36 36 36 36 35 34 33 32 32 33 34 34 32 30 28 27 27 27 27 27 27 28 29 30
27 24 22 24 26 28 29 30 30 29 29 29 28 27 25 23 22 21 22 24 26 26 26 26 27 27 27 28 29 31 33 34 35 35 36 37 37 38 38 38 38 39 40 41 42 42 41 40 39 39 39 39 39 39 38 36 35 34 34 33 34 35 36 37 37 36 34 33 32 31 31 33 34 34 32 30 28 27 26 26 26 26 26 27 29 30
23 22 23 27 29 28 26 26 28 29 29 29 27 23 20 19 20 21 23 25 26 25 24 26 28 29 29 28 28 30 31 32 34 35 36 38 39 39 40 40 40 40 40 40 39 39 38 37 37 37 37 38 39 39 38 36 35 34 33 34 35 36 36 37 37 35 34 32 31 31 31 32 33 33 31 29 27 26 26 25 25 25 25 26 28 29
20 21 24 26 28 28 26 26 27 28 27 25 22 19 17 17 19 20 21 24 26 28 27 28 28 30 32 31 29 29 29 30 32 35 37 39 40 40 39 38 37 37 36 35 34 34 34 34 35 36 36 37 38 38 37 36 35 34 34 35 35 35 35 35 35 35 33 32 30 30 30 31 32 31 30 28 27 26 25 25 25 25 26 26 27 28
18 20 21 20 20 22 23 25 26 24 20 17 15 15 17 19 20 21 20 21 24 27 29 29 29 29 31 31 31 30 30 30 32 35 37 38 38 36 33 32 31 30 30 30 29 29 31 33 34 36 36 37 37 37 36 36 35 35 35 35 34 34 33 33 33 33 32 31 30 29 30 31 31 31 30 28 27 27 26 26 26 26 26 27 28 28
21 21 20 17 17 19 21 23 21 18 14 14 13 14 17 21 23 22 21 22 24 26 27 28 29 31 31 31 31 31 31 33 35 37 37 35 33 29 27 25 25 25 27 28 29 30 32 34 36 36 37 37 37 36 35 35 35 35 35 35 33 32 32 32 33 33 32 31 30 30 31 32 32 32 31 30 29 29 28 28 28 27 27 28 28 28
23 22 20 18 18 21 23 23 21 18 18 20 20 20 21 22 22 21 20 23 25 27 28 28 29 31 34 34 33 32 32 33 34 34 33 30 26 24 23 23 25 26 29 31 32 33 34 35 35 35 36 35 34 34 33 33 34 34 34 33 32 32 32 32 33 33 32 32 31 32 33 33 33 32 32 31 31 30 30 30 30 29 29 28 28 27
20 17 13 11 14 19 23 23 22 23 24 25 24 23 22 22 21 20 20 23 26 28 29 30 30 31 33 33 32 31 31 31 30 28 27 25 24 23 23 24 26 29 31 32 32 33 34 33 32 32 32 33 32 32 32 33 33 32 32 31 31 32 33 34 34 34 33 33 33 33 33 33 33 33 33 32 32 31 31 32 32 32 30 28 27 26
18 13 9 9 13 19 23 23 23 23 24 24 23 22 20 20 20 21 23 24 27 28 26 24 22 22 25 30 30 28 28 28 27 26 26 27 28 27 26 26 29 32 31 31 31 31 31 31 31 30 30 30 31 31 31 31 31 30 30 30 32 33 35 36 36 35 33 33 33 33 33 32 32 32 32 32 32 32 31 32 32 32 31 29 27 26
16 15 14 13 15 20 25 25 24 23 23 23 22 21 20 20 21 23 25 26 26 25 21 13 9 9 13 25 30 27 25 26 27 28 28 30 30 29 28 27 28 31 32 31 31 30 30 30 29 29 29 29 28 28 28 28 28 29 30 32 34 36 37 37 36 35 34 33 33 32 32 31 31 31 31 31 31 31 31 32 32 32 31 30 29 28
17 19 20 18 19 23 26 25 23 22 22 22 22 23 24 24 25 27 28 28 25 20 15 10 8 8 9 10 23 32 24 27 29 29 29 29 29 29 29 28 29 30 31 31 31 31 30 29 28 28 27 26 26 27 28 28 30 31 34 36 37 38 37 37 36 35 34 33 32 32 31 31 31 31 32 32 32 32 32 33 33 33 32 31 30 30
21 23 23 22 23 24 25 24 22 21 21 21 22 23 24 27 29 29 29 28 23 18 13 10 9 10 11 15 27 33 26 28 29 28 28 28 29 30 31 30 29 29 28 28 30 30 28 27 26 26 26 26 27 28 29 31 34 36 37 37 37 37 36 35 35 35 34 33 33 33 33 32 33 33 33 34 34 34 35 35 35 34 33 31 31 32
25 25 25 24 23 23 23 22 21 21 22 23 25 26 27 29 31 31 28 24 19 17 17 16 15 17 21 27 30 30 28 29 28 27 26 28 30 31 32 29 26 24 23 25 28 28 27 26 26 27 28 28 28 29 32 35 36 37 37 36 35 34 34 34 34 34 34 34 34 34 34 34 34 34 34 34 34 34 34 35 34 33 31 31 32 32
27 27 26 24 22 21 22 23 25 26 27 30 31 31 30 31 28 24 20 18 18 20 22 21 21 24 28 29 30 31 33 30 26 24 24 25 28 29 29 26 22 20 20 23 26 27 26 25 25 26 27 29 31 33 35 36 36 36 35 33 33 33 33 33 34 35 35 35 35 35 35 34 34 34 33 32 32 32 32 33 33 31 30 29 30 31
27 27 29 29 27 25 26 29 30 31 32 33 33 31 29 26 22 18 18 19 21 23 24 24 26 28 29 28 29 32 34 31 27 24 22 16 20 25 23 20 17 18 21 24 26 26 25 25 26 28 30 31 33 34 35 35 35 34 33 32 32 33 34 35 36 36 36 35 35 34 33 32 30 29 28 28 29 30 30 31 31 31 30 29 29 30
28 28 30 30 31 31 32 32 33 34 35 34 34 32 29 25 21 19 21 23 24 26 28 29 30 31 30 28 30 32 33 30 29 27 22 14 14 19 20 20 21 23 25 25 24 24 26 28 29 31 32 33 34 34 34 34 33 32 31 32 33 34 35 36 36 35 34 33 32 31 30 28 27 27 28 29 30 31 32 32 32 32 32 31 31 31
31 31 31 32 33 33 33 32 33 34 35 35 35 35 33 31 29 29 30 30 29 29 28 29 30 29 26 25 25 26 28 29 29 26 19 11 12 18 24 26 25 24 24 24 25 26 29 30 31 32 32 33 34 34 33 33 32 31 31 31 33 34 34 34 33 33 32 31 31 30 30 30 30 30 31 32 32 33 33 32 32 33 33 33 33 33
32 33 33 34 34 34 34 35 35 36 36 36 36 35 34 34 34 34 34 34 31 29 27 24 21 19 22 23 22 23 27 29 29 25 17 11 14 23 28 28 24 22 23 26 28 28 31 32 32 31 32 33 33 32 31 31 30 29 29 30 30 31 31 30 30 29 29 30 31 32 33 34 33 33 33 33 32 32 32 33 33 33 33 34 34 35
35 36 36 36 36 37 37 37 38 38 38 37 35 34 35 35 34 32 30 29 26 25 22 17 12 12 18 21 22 23 27 26 25 23 19 15 15 21 27 25 23 22 24 29 31 31 31 32 33 32 32 31 30 29 28 27 27 26 26 27 27 28 28 28 28 28 29 31 33 34 34 34 34 34 33 33 32 32 32 32 33 33 34 34 35 36
35 35 35 35 35 35 35 36 36 36 36 35 34 34 34 33 31 27 23 23 23 21 17 11 10 12 13 15 17 20 23 21 19 19 20 19 16 15 20 22 22 23 25 29 32 32 30 30 31 31 30 28 26 25 24 23 23 23 24 25 26 26 27 27 28 30 31 32 33 34 34 34 34 33 33 33 33 33 33 33 33 34 34 34 35 35
30 29 30 31 33 34 34 35 34 34 34 34 34 33 33 31 27 22 20 22 23 21 15 12 11 11 10 9 14 20 23 21 20 20 21 19 12 10 18 23 24 24 24 26 29 31 29 28 28 28 27 24 22 21 20 20 21 22 24 25 26 27 27 29 30 31 31 32 32 33 33 33 34 34 34 34 34 34 34 34 34 34 34 34 33 33
29 30 32 33 33 33 33 33 33 32 33 33 33 33 31 29 25 23 23 25 24 21 15 12 11 11 11 10 16 21 22 23 23 22 22 18 13 14 23 25 26 25 24 22 23 24 24 23 24 23 21 19 17 17 18 19 20 22 24 24 25 26 27 28 29 30 30 31 31 32 32 33 34 34 35 35 35 35 35 35 35 34 33 33 32 31
33 35 35 34 33 33 32 32 32 32 33 33 33 32 30 29 28 27 28 28 25 21 17 13 12 11 10 11 12 13 14 19 22 22 22 16 12 16 24 24 24 24 21 14 11 11 14 15 17 17 16 15 15 17 18 19 20 21 22 23 23 24 26 27 28 29 29 30 31 32 33 33 34 35 35 35 35 35 36 36 35 34 32 31 30 30
35 35 34 34 34 33 33 33 32 32 32 32 31 30 29 28 28 28 29 28 25 22 19 17 16 14 12 10 8 6 5 16 22 23 23 19 16 17 22 20 20 21 20 14 7 4 7 7 10 13 13 15 18 20 21 21 20 21 22 22 23 23 24 25 27 28 29 30 31 32 32 33 34 34 34 35 35 35 36 36 35 33 31 30 29 29
34 33 34 34 34 34 33 32 32 31 31 31 30 29 28 28 27 26 27 27 25 23 22 21 19 18 16 11 9 8 8 19 25 25 25 21 21 22 22 19 18 19 21 19 12 6 6 4 7 12 14 17 21 23 23 21 20 21 22 22 23 24 25 25 26 27 28 29 30 31 32 32 32 33 33 33 34 34 34 35 34 33 31 29 28 29
33 34 34 34 33 32 31 31 31 30 30 30 29 29 28 27 26 26 25 26 25 24 23 21 20 19 19 17 15 15 18 23 26 27 26 22 20 20 21 20 19 19 21 22 19 14 9 5 7 13 18 21 23 24 23 22 20 20 20 21 22 23 24 25 25 27 28 29 29 30 30 30 30 31 31 31 31 31 32 33 34 34 33 30 29 29
33 33 33 32 31 30 30 30 30 30 29 29 28 27 27 26 25 24 25 25 26 26 26 24 21 20 19 16 15 17 23 26 28 30 29 24 20 19 21 20 19 19 19 17 18 16 11 10 9 11 14 22 25 24 22 21 20 19 20 21 21 23 24 24 25 26 27 28 28 28 29 29 28 28 27 27 27 28 29 31 34 35 34 32 31 29
31 30 30 29 28 28 29 29 30 29 29 28 27 26 25 25 24 24 25 26 27 28 28 28 26 25 23 18 14 15 22 28 32 34 33 27 23 22 21 20 19 19 16 13 11 8 6 9 12 12 10 15 19 21 21 19 19 20 21 22 23 23 24 25 26 26 27 27 27 27 27 27 26 25 24 24 24 26 29 31 32 29 27 29 30 29
26 25 26 25 25 25 26 27 28 28 27 27 26 25 25 25 26 26 27 29 30 30 31 31 32 32 30 28 23 22 25 32 35 36 35 32 29 25 21 21 23 22 17 13 9 6 6 8 12 15 13 10 10 14 18 21 22 22 23 23 23 24 26 26 26 26 26 26 26 26 26 26 25 24 24 24 24 25 26 26 23 16 12 21 28 29
22 22 23 23 23 23 23 24 25 26 26 27 26 25 25 26 28 29 30 32 33 33 33 33 34 34 34 33 32 32 33 36 37 37 37 36 33 29 24 23 25 24 18 15 12 11 10 10 10 11 10 8 6 8 15 22 25 24 24 24 24 25 26 26 26 26 25 24 24 25 25 24 23 22 23 23 23 22 21 21 19 13 2 16 25 28
21 21 21 22 22 23 23 23 24 25 27 27 27 27 27 29 31 32 32 33 33 33 34 33 33 34 35 35 35 37 38 38 39 39 40 38 35 32 28 24 23 23 22 21 20 17 11 8 8 8 7 7 9 14 19 21 22 22 24 25 25 24 24 25 25 25 23 22 22 22 22 21 21 20 21 21 20 20 19 20 22 19 10 10 20 25
20 20 21 22 22 23 23 23 25 27 28 28 28 29 30 32 33 34 33 33 32 33 33 33 33 34 35 36 36 37 36 37 37 38 37 36 34 31 28 25 24 25 26 25 23 19 11 6 5 6 8 8 11 16 20 19 19 20 23 25 25 23 22 23 23 22 21 21 21 20 20 20 19 19 18 18 18 17 18 19 21 22 19 10 9 16
20 20 21 23 23 24 25 26 28 30 31 31 32 32 32 32 32 32 32 32 32 32 32 32 32 32 33 33 33 33 34 34 34 33 33 32 31 30 28 27 26 25 25 22 18 14 10 9 9 9 9 8 8 10 13 16 18 20 21 17 17 19 22 22 22 21 21 21 20 20 19 18 18 17 17 17 16 16 16 18 19 21 22 21 17 12
21 22 23 24 25 26 27 29 31 32 32 32 31 30 30 29 29 29 30 31 31 31 31 30 30 30 30 31 31 31 30 30 29 29 29 30 30 30 28 26 24 22 19 16 15 14 14 14 13 13 13 11 11 11 12 15 18 20 20 14 14 19 23 22 21 20 20 21 21 21 19 17 17 17 16 16 15 15 16 17 18 18 20 21 21 19
23 23 24 25 26 27 29 31 32 32 32 31 29 27 27 27 27 27 27 28 28 29 29 28 27 27 28 28 28 27 27 26 26 27 28 29 29 28 25 21 19 18 18 17 17 18 18 17 15 14 13 13 11 9 10 15 18 19 18 17 18 20 21 20 19 18 19 21 22 20 18 17 16 16 15 14 15 16 17 18 18 18 19 19 19 19
24 24 26 28 29 30 32 31 31 30 29 28 27 27 28 29 28 28 26 25 25 27 28 28 26 24 21 21 23 25 25 26 27 27 27 26 23 20 18 18 19 20 20 18 17 18 18 17 15 14 14 14 12 9 8 12 17 19 18 18 18 14 7 12 18 21 22 21 20 19 18 17 16 14 13 14 16 19 20 21 20 20 20 20 20 20
25 27 29 30 31 31 31 29 28 27 27 26 26 27 29 30 30 28 26 25 25 25 26 26 25 23 19 17 19 22 24 26 26 25 22 19 16 15 16 18 20 21 19 17 15 15 15 15 14 13 13 13 12 10 9 11 14 16 18 18 17 12 7 10 16 20 20 19 18 18 17 16 14 12 12 16 20 22 23 24 24 24 24 23 23 23
27 28 29 30 30 29 27 26 26 27 26 26 26 27 28 29 29 28 26 25 24 24 25 25 23 18 13 13 16 19 22 23 23 21 17 15 14 16 18 19 20 20 19 17 16 15 13 12 12 13 13 12 12 11 10 11 12 15 16 17 15 13 13 15 16 16 15 15 16 17 16 15 12 11 12 16 20 23 24 25 25 26 26 27 26 26
27 26 26 27 27 26 25 26 27 26 26 26 26 27 28 29 29 28 27 25 23 23 25 25 20 13 8 10 14 17 18 19 19 17 15 15 16 18 19 20 20 19 19 18 17 17 15 13 13 12 12 11 11 11 11 12 11 12 13 14 14 14 15 15 15 14 14 14 15 16 15 14 12 10 12 15 18 21 24 26 25 26 27 28 28 28
25 25 25 26 26 26 27 27 27 26 25 25 26 27 28 29 28 28 27 25 23 23 23 23 19 13 10 11 13 14 13 13 14 15 15 16 17 19 20 20 20 20 19 18 17 17 16 15 14 12 11 8 6 6 9 11 11 11 11 12 13 12 11 12 13 14 14 14 15 15 14 13 12 11 13 16 18 20 23 25 27 28 28 28 29 29
25 25 26 26 25 25 25 26 26 25 23 23 25 27 29 29 27 25 24 25 24 23 21 19 16 13 12 13 14 15 14 13 13 14 15 16 17 18 19 20 21 20 19 18 16 15 13 11 10 10 10 8 5 4 7 11 12 11 11 12 12 11 10 11 12 14 14 14 14 14 14 13 11 11 12 14 16 18 21 24 26 28 29 29 30 30
26 26 26 26 24 23 24 25 25 24 22 23 24 26 28 30 28 25 23 23 23 21 18 16 13 11 10 12 14 16 16 16 15 15 15 15 16 17 19 20 21 21 20 18 16 13 10 6 4 4 6 8 8 8 9 11 12 13 12 12 11 11 10 10 12 13 14 14 15 15 16 15 13 13 14 12 11 13 18 21 24 27 29 30 31 31
26 26 27 26 24 23 23 24 24 23 22 23 23 24 26 28 28 26 25 24 22 20 18 16 13 11 9 11 13 15 15 14 14 14 14 14 15 16 17 19 19 18 17 15 13 10 6 2 1 1 4 7 10 11 11 12 13 13 12 12 11 11 10 10 11 13 14 14 15 17 18 18 17 17 17 14 11 11 16 19 22 24 27 29 31 32
26 26 27 26 25 24 24 24 24 23 23 23 23 23 23 24 24 25 24 23 21 20 18 16 14 11 10 12 13 14 15 14 12 12 13 13 14 15 15 16 16 15 12 9 7 5 2 0 0 1 4 8 11 12 13 13 12 11 9 10 11 11 10 10 11 13 14 16 17 19 20 20 19 18 17 16 11 9 11 14 18 21 25 27 29 31
Wind_Direction
302 304 306 308 307 305 304 304 304 303 303 302 302 302 302 301 300 299 299 298 297 296 295 295 296 298 300 302 303 303 303 302 302 301 301 301 301 300 299 298 297 296 296 297 298 299 300 300 300 299 298 297 295 294 293 295 298 300 300 299 299 299 299 300 300 298 295 291 288 286 284 284 283 282 282 281 280 279 278 278 277 277 277 277 277 278
303 304 305 306 305 302 300 301 301 301 300 300 300 299 299 298 298 298 298 297 295 294 294 295 297 300 302 303 303 303 302 301 301 301 301 301 301 300 299 298 297 296 296 297 298 300 301 301 300 299 298 295 293 293 294 296 298 299 299 297 295 295 295 297 298 298 296 293 290 287 285 284 283 282 282 281 280 278 278 278 278 277 277 276 275 275
303 303 303 303 301 297 295 297 298 297 297 297 297 296 296 297 297 296 295 295 294 294 295 297 300 302 303 303 302 301 300 299 300 301 301 301 301 301 300 299 298 297 296 297 299 300 301 301 300 298 296 294 293 293 295 297 298 298 297 295 293 292 292 294 295 296 295 294 292 289 287 285 284 283 282 280 279 278 278 278 279 280 279 278 276 275
299 298 298 297 295 291 291 294 295 295 294 294 294 293 294 295 295 294 293 293 294 296 298 300 301 302 303 302 301 300 299 299 300 301 302 302 302 301 301 300 299 298 297 297 299 300 300 299 298 296 294 293 293 294 296 297 297 296 295 293 291 291 292 293 295 296 296 296 295 292 289 286 284 282 281 280 280 279 279 280 281 282 282 281 280 278
295 294 293 291 289 289 291 293 295 294 293 292 292 292 293 293 293 293 293 294 295 298 301 303 304 303 302 301 300 299 300 301 303 303 304 303 303 302 302 301 299 298 297 297 298 298 298 297 296 294 293 293 294 295 296 295 295 295 294 293 292 292 292 293 294 295 296 297 297 296 293 289 286 284 282 281 280 280 280 280 281 282 282 282 281 280
295 292 288 286 287 290 293 294 294 294 293 292 291 291 292 292 293 293 293 295 297 300 303 305 304 302 300 299 299 300 302 305 306 306 305 304 303 303 302 301 299 298 298 298 298 298 297 296 295 294 294 294 295 295 295 295 295 296 296 295 295 294 294 293 293 293 293 295 297 298 297 295 292 289 286 282 280 279 278 279 280 280 281 281 281 279
293 289 285 284 288 291 294 294 293 292 292 291 291 291 291 292 292 292 292 294 297 299 300 301 301 299 298 298 299 302 305 306 307 306 304 303 302 302 302 301 300 299 299 298 298 297 296 295 294 293 293 294 294 294 295 296 297 298 297 297 297 297 296 294 292 291 291 292 294 296 298 299 297 294 290 285 281 279 278 278 278 279 279 280 280 278
289 285 282 286 291 295 295 293 290 289 289 289 289 290 291 292 291 291 293 294 295 295 295 296 296 296 296 298 301 304 306 306 306 305 303 302 301 301 301 300 300 299 299 298 297 296 295 294 292 292 292 293 294 295 295 296 296 295 295 297 298 297 295 292 290 289 289 290 292 294 296 297 296 294 291 286 283 281 279 278 277 277 276 276 277 277
282 282 284 289 293 294 293 291 289 287 287 288 288 289 291 292 292 291 292 292 292 292 293 295 295 295 295 298 301 303 304 304 304 303 302 301 300 300 300 299 298 297 297 296 295 294 292 291 291 291 293 295 296 297 296 294 291 290 290 292 293 293 291 290 289 289 288 289 290 292 293 293 292 291 289 286 284 282 281 279 277 275 272 271 273 276
275 280 289 294 294 291 288 289 290 290 290 288 287 288 291 296 298 299 297 297 297 296 295 298 300 299 298 297 299 302 303 303 303 302 302 300 299 298 297 296 296 295 294 293 292 291 290 290 291 292 294 296 298 298 296 292 289 287 288 290 290 290 289 290 290 290 290 289 289 290 290 290 290 290 288 287 286 285 283 282 279 276 273 271 271 274
278 286 293 295 294 291 290 292 293 293 292 291 292 293 296 298 301 302 303 303 304 304 303 302 301 302 303 301 301 302 304 304 304 303 302 300 298 296 294 292 291 291 291 291 291 291 291 292 293 294 295 295 296 296 294 291 288 287 289 289 289 289 288 289 290 290 290 290 290 290 291 291 292 292 292 292 291 290 288 286 283 279 275 273 272 272
288 293 293 291 291 294 297 299 298 296 295 297 300 302 301 300 301 303 304 304 305 306 307 305 302 300 301 303 304 304 305 305 304 302 300 298 296 293 291 289 289 290 291 293 293 293 294 295 295 294 294 293 293 292 290 288 287 287 288 288 287 286 287 288 289 291 291 292 292 292 293 294 295 296 297 297 297 295 293 291 287 283 279 275 273 272
291 291 289 287 291 298 303 306 305 303 301 302 303 302 300 301 303 304 302 301 302 304 306 306 304 302 300 300 302 305 305 304 302 300 298 296 293 291 291 290 291 293 296 297 297 295 295 294 294 293 292 290 289 287 286 285 285 286 287 286 286 286 287 290 292 293 294 295 295 294 294 295 296 297 299 300 300 299 297 294 290 286 281 277 274 272
293 291 289 292 298 302 305 306 306 304 303 302 300 298 297 300 303 303 300 299 301 303 306 304 301 301 302 302 302 304 304 302 300 298 296 293 292 292 294 296 296 296 296 296 295 294 293 293 292 291 290 288 286 284 284 284 284 284 285 285 287 289 291 294 295 296 296 296 296 294 294 294 294 295 297 297 298 297 297 295 293 289 284 279 275 272
294 293 295 299 304 307 307 306 304 302 302 301 301 300 300 302 302 302 301 301 302 304 304 302 299 298 300 301 303 304 304 301 299 296 295 294 294 296 299 298 296 294 293 292 291 291 291 291 290 289 287 286 284 283 283 283 284 284 284 287 290 293 295 297 297 297 295 294 293 292 292 292 292 293 294 294 293 293 293 293 293 292 288 284 279 276
295 299 304 307 309 309 308 307 305 303 303 303 304 304 304 303 303 303 303 302 302 302 301 299 298 297 297 300 302 305 306 304 301 298 297 296 296 298 299 296 294 292 290 289 288 288 289 289 288 287 286 284 284 284 284 284 285 286 289 292 294 296 297 297 297 296 294 293 292 291 291 291 292 293 293 292 291 290 290 290 291 290 290 288 286 282
299 306 308 308 307 306 306 305 303 302 303 304 304 304 303 303 304 303 301 299 298 297 295 294 293 295 298 302 304 306 308 308 304 301 299 296 296 297 297 293 291 290 289 289 288 287 287 287 287 287 287 286 286 287 287 288 290 293 295 297 297 297 296 295 295 295 294 293 292 291 291 292 293 294 294 294 293 292 291 291 290 288 288 288 288 286
305 308 307 306 304 303 304 303 302 301 302 302 302 303 304 303 302 299 295 293 291 289 288 287 287 290 297 300 304 306 308 308 304 300 297 295 295 296 296 292 288 286 286 287 287 287 287 287 288 289 289 289 288 289 291 293 295 297 297 297 296 295 293 292 292 293 293 293 292 292 292 292 294 295 296 298 298 298 296 295 292 288 285 284 285 284
307 307 305 303 302 302 302 302 302 302 301 301 303 305 305 303 298 293 288 285 282 281 284 287 289 290 293 295 300 303 305 306 302 297 295 294 294 295 296 292 287 282 282 284 286 288 289 289 290 291 291 292 291 292 293 294 295 295 295 294 292 291 290 290 291 291 291 291 291 291 291 292 292 293 295 296 297 296 295 293 290 287 283 280 279 279
305 303 302 302 302 302 301 300 300 301 303 306 308 307 303 298 293 288 282 278 278 282 290 293 293 293 294 294 296 299 303 304 301 295 292 291 292 294 295 291 285 279 278 283 288 290 291 292 293 294 295 295 294 293 292 292 292 292 291 290 289 289 289 289 290 291 291 291 291 291 291 291 290 290 290 290 290 289 288 287 287 285 282 277 273 272
301 299 298 300 301 300 299 299 301 304 305 307 306 302 297 292 287 282 279 283 290 295 297 296 294 294 294 294 295 298 301 300 295 290 290 290 290 292 293 289 281 275 278 286 291 293 295 296 299 300 299 296 293 292 291 291 291 290 289 288 288 288 289 290 290 290 291 291 291 291 290 289 287 286 285 285 284 283 282 282 283 284 283 278 273 270
295 296 298 300 300 297 295 297 299 300 301 302 299 294 290 287 284 286 293 299 302 301 299 296 295 295 294 292 292 294 297 295 289 284 285 283 284 287 290 289 287 286 288 292 296 298 300 301 301 299 296 293 292 291 291 290 289 288 287 287 288 289 291 291 291 290 290 290 290 289 287 286 286 286 286 286 285 284 282 281 282 282 282 280 276 272
294 294 296 298 298 297 296 295 296 297 300 299 296 292 287 287 290 297 303 304 303 302 300 298 297 296 294 291 291 292 293 291 285 280 278 274 278 285 294 300 301 298 295 296 299 302 303 301 299 296 295 294 293 292 290 290 288 287 287 288 290 291 291 291 290 290 290 289 288 287 287 289 291 293 294 292 290 288 285 283 282 280 280 279 277 274
295 295 295 297 298 297 296 295 296 299 302 301 299 297 296 297 299 301 303 303 303 302 301 300 298 296 294 292 291 291 293 292 287 280 272 272 281 289 298 302 300 295 292 295 299 301 301 298 296 295 294 294 293 291 289 288 288 287 288 289 290 290 290 290 290 290 290 289 289 290 291 294 295 295 293 291 288 286 284 282 280 278 277 276 275 273
297 297 298 299 300 300 299 300 301 303 304 303 302 301 301 302 303 303 303 304 303 302 301 298 295 293 294 296 295 294 296 296 291 283 271 276 287 291 296 298 296 292 293 297 299 300 299 296 294 293 291 291 290 289 288 287 288 288 288 288 288 288 288 288 289 289 290 292 293 293 294 294 294 293 291 289 286 284 281 279 277 275 274 274 273 272
299 300 301 302 303 303 303 304 304 304 303 302 302 303 304 305 305 304 304 303 303 301 298 294 289 289 294 296 295 295 297 298 294 288 281 284 288 291 295 297 297 295 297 299 300 300 297 295 293 291 289 288 287 287 287 287 288 288 288 288 289 289 288 288 289 291 292 293 294 294 293 292 292 291 289 287 285 282 279 277 275 273 272 271 271 270
303 304 305 306 307 306 306 305 305 303 302 302 302 303 304 305 305 304 301 301 301 300 296 291 288 290 292 293 293 294 298 301 302 298 293 290 288 290 296 300 302 300 298 298 299 298 296 293 292 290 289 287 286 287 288 288 288 288 289 291 291 290 289 289 291 292 293 293 292 292 291 291 290 289 288 286 284 281 278 275 273 271 270 269 269 267
312 313 313 312 310 308 306 305 304 304 303 303 302 302 303 303 302 299 296 298 298 296 291 288 288 289 288 285 291 296 300 304 307 306 304 299 293 292 299 304 304 301 298 297 298 297 295 292 290 289 287 286 286 287 289 290 290 290 292 292 291 290 290 291 292 292 292 292 291 291 290 290 289 288 287 285 283 280 277 274 272 270 268 266 264 262
319 316 314 311 309 308 307 306 305 304 304 303 303 302 301 299 297 294 293 295 294 291 287 285 284 284 285 287 294 298 300 304 307 311 313 308 300 296 300 302 301 300 299 298 298 297 295 292 290 288 286 286 288 290 291 292 292 292 292 289 288 288 290 291 292 292 292 291 291 291 290 290 289 287 286 284 281 279 276 274 271 268 265 262 258 256
317 315 313 311 310 309 308 306 305 305 304 304 303 301 299 295 293 291 290 290 288 285 284 285 285 285 287 294 298 298 298 304 310 315 315 310 299 296 299 299 298 298 299 300 300 297 294 293 292 291 291 294 298 299 298 297 294 292 290 289 287 288 289 291 293 293 293 292 292 292 291 290 288 287 285 283 281 279 276 273 270 266 262 257 252 249
315 313 312 311 311 310 308 307 306 306 305 304 302 300 297 293 290 288 288 287 285 282 283 286 288 290 294 298 300 297 299 304 309 313 312 304 295 293 297 297 296 296 296 296 297 300 300 297 296 297 302 307 308 306 303 299 294 292 292 291 291 291 291 293 295 296 296 295 294 293 292 290 288 286 284 283 281 279 276 273 269 264 259 252 247 242
313 312 311 310 309 308 307 307 306 305 304 303 301 299 296 293 289 286 285 285 284 282 283 286 289 292 293 292 291 291 295 301 305 307 306 299 294 293 295 295 295 295 294 291 288 289 297 302 303 305 309 311 310 308 304 299 294 291 292 293 293 293 295 297 298 299 299 298 296 295 293 290 288 286 285 284 282 280 278 275 270 265 257 249 242 237
311 310 308 307 306 305 306 306 306 304 302 301 299 298 296 294 291 287 285 284 284 284 285 287 289 291 290 288 286 286 291 296 300 303 303 299 295 294 295 295 294 294 294 291 287 282 281 287 303 307 309 308 307 306 304 300 295 292 293 294 295 297 299 301 302 302 301 300 298 296 295 292 290 289 288 287 286 285 283 280 275 268 258 248 238 232
308 307 306 305 304 305 306 306 306 305 304 301 299 297 295 293 290 288 287 286 285 286 288 287 287 288 289 288 287 287 290 293 297 301 302 299 295 294 295 294 294 294 295 293 289 285 283 289 300 307 307 305 304 303 302 301 299 298 299 300 300 301 302 304 304 303 302 301 299 297 296 295 294 294 295 295 295 294 292 290 285 276 262 245 232 224
305 304 303 303 304 305 307 308 308 308 306 304 301 297 295 293 290 289 288 289 288 288 288 287 286 285 285 286 286 287 289 293 297 300 301 298 294 293 294 293 294 294 294 292 290 289 290 296 300 302 299 300 300 301 302 305 307 308 308 307 305 304 304 304 304 303 302 301 299 298 298 298 299 301 303 304 304 302 301 302 299 288 264 238 222 213
300 299 300 301 302 304 305 307 309 309 308 307 303 299 297 295 293 292 292 292 292 291 289 289 288 287 285 284 282 283 286 292 296 299 298 297 294 292 291 292 293 293 291 291 294 298 299 296 296 295 293 292 298 304 308 312 314 314 313 311 308 306 305 304 303 303 302 300 299 298 300 302 305 308 311 311 310 310 312 318 323 314 256 217 207 203
298 297 298 300 301 302 303 306 307 308 309 309 306 301 298 298 297 296 295 295 294 292 292 291 290 289 287 286 284 284 287 291 294 295 295 294 293 291 288 288 290 291 290 294 297 297 293 288 288 290 290 293 300 310 313 315 316 316 314 312 310 308 305 305 304 303 301 299 298 299 304 308 312 315 318 318 318 321 328 345 3 17 147 189 193 195
299 298 299 300 302 303 304 305 306 308 309 309 306 303 301 300 300 299 298 297 295 294 294 293 292 292 290 289 288 288 289 290 291 291 292 292 291 289 287 287 289 292 293 293 291 288 285 286 293 299 300 302 306 309 312 314 316 315 314 314 312 309 306 306 306 305 303 301 302 306 311 316 320 324 325 325 328 333 342 360 19 35 59 164 186 191
301 301 301 302 303 304 304 304 306 308 309 307 305 304 303 303 303 302 301 300 299 298 297 296 294 293 292 291 291 290 290 290 290 291 292 292 291 290 289 289 291 292 292 289 285 283 285 295 307 308 308 308 309 310 311 313 314 314 315 315 314 312 310 310 310 308 306 307 311 316 320 325 329 331 331 332 335 341 349 1 17 30 41 68 149 181
304 304 304 305 305 305 305 305 307 309 308 308 307 307 306 305 304 304 304 304 303 302 301 299 296 294 293 293 293 292 292 292 292 293 294 294 293 293 291 290 288 287 288 287 286 289 300 307 308 305 303 304 307 309 310 311 312 314 316 316 316 314 313 312 310 308 310 316 321 324 326 330 334 336 336 338 343 350 357 5 14 25 35 44 54 73
307 306 306 306 307 307 307 308 309 310 310 309 308 307 306 306 305 305 306 306 305 305 304 302 299 297 296 295 295 294 294 295 295 295 296 296 296 294 292 290 289 290 294 299 305 309 310 307 304 301 299 299 300 302 304 306 309 311 312 311 309 309 310 309 309 311 318 325 329 330 331 333 337 339 341 345 353 2 10 15 19 24 34 42 49 52
307 306 306 306 307 307 309 310 311 311 311 310 308 306 306 306 306 306 305 305 305 305 305 304 301 299 298 297 298 299 300 301 301 301 300 299 298 297 297 300 307 315 320 320 316 311 306 301 296 292 291 293 295 298 301 304 307 309 308 306 305 307 308 309 313 319 326 329 331 333 334 335 336 339 345 354 6 17 24 27 28 29 33 38 45 52
306 305 306 307 308 309 311 311 311 311 311 310 308 307 308 308 308 307 305 303 302 304 305 304 302 299 295 294 298 304 307 308 307 305 303 302 302 305 313 321 326 327 325 319 311 305 301 296 289 284 286 289 292 294 297 302 306 307 305 303 303 305 305 313 318 322 327 329 332 335 337 336 336 341 354 11 24 31 34 35 35 37 39 42 46 51
305 306 308 309 310 312 312 311 310 310 309 308 307 307 308 310 309 307 305 303 302 302 303 303 302 299 294 294 300 306 310 311 310 308 306 307 312 320 326 326 324 321 317 309 303 300 299 296 291 289 292 295 296 296 297 300 302 303 303 303 300 296 290 305 316 321 326 330 334 338 340 339 340 349 11 29 36 38 38 38 39 41 44 49 52 54
308 309 310 311 312 312 310 309 310 310 309 308 307 307 308 310 310 309 306 304 302 302 302 304 303 300 297 299 305 310 311 311 311 311 313 318 323 326 326 325 323 320 315 307 300 297 296 295 297 300 303 303 300 296 295 297 299 301 304 307 307 305 303 309 317 324 330 334 338 341 344 346 350 2 24 37 41 41 40 39 39 41 44 49 53 56
309 309 309 311 311 309 308 310 311 311 310 309 309 308 310 311 311 310 308 305 302 301 303 305 303 299 296 304 310 312 311 311 312 316 321 326 328 328 329 328 327 323 317 309 302 296 290 289 292 298 302 301 297 294 294 298 300 303 309 315 317 317 317 319 326 335 342 343 344 346 352 359 8 22 38 44 44 43 43 43 43 43 45 50 53 56
309 309 309 310 309 309 310 311 312 312 310 310 310 310 312 312 312 311 309 307 304 303 304 305 302 297 297 304 310 311 311 312 315 320 326 329 331 332 333 332 330 327 321 313 306 299 292 288 287 288 290 291 293 300 307 310 310 309 311 315 317 317 315 320 335 350 358 357 355 356 3 10 18 31 45 51 50 47 45 46 47 49 50 53 56 58
310 310 310 310 309 309 310 312 313 312 310 309 309 311 314 314 313 310 308 308 307 306 304 303 301 299 301 306 310 312 313 315 319 324 327 331 334 336 337 336 335 332 328 323 316 309 301 295 288 283 283 286 294 315 320 322 319 315 313 314 315 315 315 325 345 3 10 10 11 14 18 20 24 33 47 54 54 51 47 46 48 52 55 58 59 61
311 310 311 311 310 309 310 312 312 311 309 308 309 311 313 315 315 311 308 308 308 306 303 301 301 302 306 311 313 314 317 320 322 325 328 333 338 341 341 340 339 337 335 333 331 328 322 313 296 290 300 307 316 325 324 325 323 321 318 318 318 317 319 335 356 11 17 20 24 30 34 36 38 45 54 57 57 52 49 47 48 53 58 62 64 66
312 311 312 311 310 309 309 311 311 310 308 308 308 308 311 314 315 314 313 311 309 306 303 302 302 305 310 313 315 318 321 324 325 327 331 338 344 346 344 343 342 340 339 339 340 340 336 317 267 320 349 349 344 337 330 326 327 328 328 329 330 331 334 349 7 19 25 28 34 40 44 44 45 51 58 60 59 55 52 48 46 49 58 66 69 71
312 312 312 311 310 310 310 310 310 308 307 307 307 307 308 310 312 314 314 313 310 307 305 304 305 308 312 315 317 320 324 325 325 328 333 343 350 351 348 345 344 343 343 342 341 344 355 59 94 327 343 360 3 356 343 334 332 333 333 337 343 349 357 7 21 31 37 41 45 48 48 46 45 48 54 59 59 55 51 47 42 44 55 66 72 75
Height
692 689 688 687 686 682 679 679 678 676 672 670 668 667 665 663 661 660 658 657 655 652 651 649 647 646 644 642 641 639 637 636 634 632 630 629 627 625 623 621 619 617 616 614 613 612 611 609 607 606 604 603 601 601 599 598 597 596 595 594 592 591 591 589 588 587 585 584 583 582 581 580 579 578 578 577 577 577 577 576 576 576 575 575 574 574
691 689 688 687 685 682 678 677 677 675 672 669 667 665 663 661 659 657 656 654 652 651 649 647 645 643 642 640 638 637 635 634 632 630 628 626 625 623 621 619 617 615 613 612 611 609 608 606 605 603 602 601 599 598 597 596 595 594 593 592 591 589 588 587 586 585 583 582 581 579 578 577 577 576 575 575 575 574 574 573 573 573 572 572 572 572
691 688 686 685 683 681 677 674 673 673 671 668 665 664 662 660 657 655 653 652 650 648 647 645 643 641 639 637 636 634 633 631 630 628 626 624 622 620 618 616 615 613 611 610 608 607 606 604 603 601 600 598 597 596 594 593 593 592 591 590 588 587 586 585 584 583 581 580 578 577 576 575 575 574 573 573 572 572 571 571 570 570 570 570 569 569
690 687 684 682 681 678 676 673 671 669 668 666 664 662 660 658 656 653 651 649 648 646 645 643 641 639 637 635 634 632 631 630 628 626 625 622 620 618 616 614 612 611 609 607 606 605 603 602 600 598 597 596 594 593 592 591 590 589 588 587 586 585 584 583 582 581 580 578 576 575 574 573 572 572 571 571 570 569 569 568 568 567 567 567 567 567
689 687 683 681 678 675 673 672 669 667 665 663 661 659 657 655 653 651 649 647 646 644 642 641 639 638 636 634 632 631 629 628 626 625 623 621 618 616 614 612 611 609 607 605 604 602 601 599 597 596 594 593 591 591 590 589 588 587 586 584 583 582 581 580 580 579 577 576 574 573 571 571 570 569 569 568 567 567 566 566 565 565 565 565 565 565
687 685 682 680 677 674 671 669 667 665 662 660 658 656 654 652 650 648 646 645 644 642 641 639 637 636 634 632 631 629 628 626 625 623 621 619 617 615 612 610 608 606 605 603 601 600 598 596 594 593 591 590 589 588 588 586 586 584 583 581 580 579 578 577 576 575 574 573 572 571 569 568 567 567 566 566 565 564 564 563 563 563 563 562 562 562
684 683 681 678 675 672 670 667 665 663 661 658 655 652 650 649 647 645 644 643 642 640 638 636 635 633 631 630 629 627 626 624 622 621 619 617 615 612 610 608 606 604 602 601 599 597 595 593 592 590 589 588 587 586 586 585 583 582 581 579 577 576 575 574 573 572 571 570 569 568 567 566 565 564 564 563 562 562 561 561 561 561 561 560 560 560
682 679 679 677 673 669 667 665 663 661 659 656 653 649 647 645 644 643 642 641 640 638 636 634 632 630 629 628 626 625 623 622 620 618 616 614 612 610 607 605 603 602 600 598 596 594 592 591 589 588 586 585 584 584 583 582 581 580 579 577 575 574 574 573 572 571 569 568 567 566 565 564 563 563 562 561 560 560 559 559 558 558 558 558 558 557
681 677 675 674 672 668 663 660 659 658 657 654 651 648 646 644 642 641 640 638 637 636 635 632 630 628 626 626 625 623 621 620 618 616 614 611 609 607 605 603 601 599 597 595 593 591 590 588 586 585 584 583 582 581 580 579 578 577 576 575 574 573 572 571 570 569 567 566 565 564 563 563 562 561 560 559 558 557 556 556 556 556 556 556 556 555
678 676 672 670 669 667 662 657 655 654 654 652 650 648 646 644 642 639 637 636 635 634 633 632 629 626 624 623 622 621 619 617 616 614 612 609 606 604 602 600 598 596 594 592 591 589 587 586 584 583 581 581 580 578 577 576 575 574 574 573 572 571 570 569 567 566 565 564 563 562 561 561 560 559 558 556 556 555 554 554 554 553 553 553 553 552
674 672 670 667 665 664 662 658 654 652 652 650 648 647 646 644 642 639 636 633 632 632 631 630 629 626 623 621 620 619 617 615 613 611 609 606 604 602 600 597 596 594 592 590 588 586 585 584 582 581 580 578 577 576 575 573 572 571 571 570 570 569 568 567 566 564 563 562 561 560 559 558 557 556 555 554 553 552 552 551 551 551 551 550 550 549
672 669 667 666 663 661 659 657 654 652 651 649 647 645 644 643 642 639 636 633 631 630 629 627 626 625 623 620 618 616 615 613 611 608 605 603 601 599 597 595 593 591 590 588 586 585 583 582 580 579 577 576 574 573 572 571 570 569 568 568 567 566 565 564 563 561 561 560 558 558 557 556 555 554 552 551 551 550 549 549 549 548 548 547 546 546
670 668 666 663 661 660 658 656 654 652 650 649 647 644 641 640 639 638 636 633 630 629 627 625 622 621 620 619 617 615 613 611 608 605 602 600 598 596 595 593 591 590 588 586 584 582 581 579 578 576 574 573 571 570 569 568 567 566 566 565 564 563 562 561 559 558 557 556 556 555 554 553 552 551 550 549 548 547 547 546 546 546 545 545 544 543
668 666 663 661 659 658 657 656 654 652 649 647 646 643 641 639 638 636 634 631 629 627 626 623 620 617 616 616 615 614 612 609 606 602 600 597 596 595 594 592 590 588 586 584 581 579 577 576 575 573 571 570 568 567 566 566 565 564 563 562 561 560 559 557 556 555 554 553 552 552 552 551 550 549 548 547 546 546 545 544 544 543 542 541 541 541
667 664 662 659 658 657 657 656 654 651 648 647 645 642 640 638 636 635 633 629 626 625 623 621 617 615 613 613 613 612 611 607 604 601 598 595 594 594 593 591 588 586 583 581 579 576 575 574 572 570 568 567 566 565 564 563 562 561 560 559 558 556 556 554 553 552 552 551 551 550 549 548 547 546 546 545 544 543 543 542 541 541 540 539 538 538
666 664 661 659 658 657 656 655 653 651 648 646 644 642 640 637 635 634 632 629 626 623 621 618 615 611 609 609 610 610 609 606 603 600 597 593 592 592 592 590 586 582 580 578 576 574 572 571 569 568 566 565 563 562 561 561 560 559 557 556 556 555 553 552 551 550 550 549 549 548 547 546 545 544 543 542 542 541 540 540 539 538 537 536 536 535
665 663 661 659 657 655 655 654 652 650 647 645 643 641 639 637 635 632 631 628 625 622 619 617 614 610 606 603 605 607 607 606 602 598 595 591 589 589 590 588 584 580 577 575 573 572 570 568 567 565 564 562 561 561 559 558 557 556 555 554 553 552 551 550 549 548 547 546 546 545 544 543 543 542 541 540 539 538 538 537 536 536 535 534 534 533
664 662 660 658 657 655 653 652 651 648 647 644 642 639 637 636 634 631 629 626 623 621 617 615 613 610 606 602 601 602 606 605 601 597 593 589 586 586 587 585 581 577 574 572 571 569 568 566 565 563 562 561 560 559 558 556 555 554 553 552 551 550 549 548 546 546 545 544 543 542 541 541 540 539 538 537 536 536 535 534 534 533 532 532 531 531
663 662 660 658 656 654 652 651 649 647 645 643 640 638 636 633 631 629 626 623 621 618 616 614 611 609 606 603 600 600 603 603 600 595 591 586 584 583 583 581 578 574 571 570 568 567 566 564 562 561 560 559 558 557 556 555 554 552 551 550 548 547 546 545 544 543 542 541 540 540 539 538 538 537 536 535 534 533 533 532 531 530 530 529 529 529
662 661 660 658 656 653 651 649 648 647 644 642 640 637 635 631 628 626 622 620 618 616 614 612 609 606 605 602 599 599 601 601 599 594 589 584 581 579 579 578 575 571 569 567 566 565 564 562 561 560 559 558 557 556 554 553 551 550 548 547 546 544 543 542 541 540 539 538 537 537 536 536 535 534 533 532 531 531 530 529 528 527 526 526 526 526
662 659 658 658 656 653 650 647 646 645 643 641 639 636 633 629 625 622 619 617 616 614 612 610 607 605 603 601 598 597 599 599 597 592 586 581 577 575 576 575 572 570 567 565 564 563 562 561 559 558 557 556 555 553 551 550 548 547 546 544 543 541 541 539 538 537 536 535 535 534 533 532 531 531 530 529 528 528 527 526 525 524 523 523 523 523
661 658 656 656 655 652 648 645 643 642 641 639 637 634 631 626 623 620 617 616 615 612 610 608 605 603 602 600 597 596 597 597 595 591 586 579 574 571 572 572 570 568 565 563 562 561 560 559 558 556 555 553 551 550 548 547 546 544 543 541 540 539 538 537 536 534 533 533 532 531 530 529 528 527 526 526 525 524 523 522 521 521 520 520 520 520
660 656 654 652 651 649 646 643 641 639 638 636 634 631 628 625 622 619 617 615 613 611 608 606 603 601 600 598 596 594 594 593 592 589 585 577 571 569 570 570 568 566 563 562 561 559 558 557 555 553 552 550 548 547 545 544 542 541 540 539 538 537 536 535 533 532 531 530 529 528 527 526 525 524 523 522 522 521 520 519 519 518 517 517 517 516
657 654 652 650 648 646 644 641 639 637 635 633 631 628 626 623 621 619 616 614 612 610 606 604 601 599 597 596 594 592 591 590 588 586 582 576 570 567 568 568 567 564 561 560 559 558 556 554 552 550 549 547 545 544 542 541 540 539 538 537 536 535 534 532 531 530 528 527 526 525 524 523 522 521 520 520 519 518 517 516 516 515 515 514 514 513
654 652 650 647 646 644 642 639 637 635 633 631 629 626 624 621 619 617 615 613 611 609 606 603 599 596 594 593 591 589 588 587 585 583 580 575 570 567 566 566 565 562 559 557 557 556 554 551 549 547 546 544 542 541 540 538 537 536 536 535 534 532 531 530 529 527 526 525 524 522 521 520 519 518 517 516 516 515 514 513 513 512 511 511 510 510
652 650 648 646 644 642 640 637 635 633 632 630 627 625 622 620 617 615 613 612 610 608 605 601 598 594 592 591 589 586 585 583 582 581 578 575 569 566 564 564 563 561 557 555 554 553 551 548 546 544 543 541 539 538 537 536 535 535 534 533 531 530 529 528 526 525 524 523 521 520 519 518 516 515 514 513 512 512 511 510 510 509 508 508 507 506
650 648 646 644 642 640 638 636 633 631 629 628 626 624 621 619 616 614 611 610 609 607 604 600 596 592 590 588 586 584 582 581 580 579 577 574 570 565 562 562 562 560 556 553 551 551 549 546 543 541 539 538 536 536 535 534 533 533 532 531 530 528 527 526 525 523 522 521 519 518 516 515 514 512 511 510 509 508 508 507 506 506 506 505 504 503
647 646 644 642 640 637 635 633 631 629 627 626 624 622 621 619 616 613 610 609 608 606 603 599 596 591 588 585 583 581 581 580 579 578 576 574 570 565 562 561 561 558 555 551 548 547 546 544 541 538 536 535 534 534 533 532 531 531 530 528 527 526 525 524 522 521 520 518 517 515 514 512 511 509 508 507 506 505 504 503 503 503 502 502 501 500
645 644 642 639 637 635 633 631 629 627 625 623 622 621 619 618 615 612 609 608 606 604 601 598 594 591 587 583 580 579 579 578 578 576 575 573 569 565 562 561 559 557 555 550 546 543 542 540 538 536 534 533 533 532 531 531 530 528 527 526 525 524 522 521 520 519 517 516 514 512 511 509 507 506 504 503 502 501 500 499 499 499 499 498 497 496
642 640 638 636 634 632 630 628 626 624 623 621 620 618 617 616 614 611 608 606 605 602 599 596 592 589 586 582 579 576 575 576 576 576 574 572 567 563 561 560 558 556 554 551 545 540 536 536 536 535 533 532 531 531 530 529 527 526 524 523 522 521 520 519 517 516 514 513 511 509 508 506 504 502 501 499 497 496 495 495 495 495 494 493 493 492
639 637 635 633 631 629 627 626 624 622 620 619 617 616 614 613 611 609 607 605 603 600 597 594 591 588 586 583 580 576 573 572 574 574 573 571 566 561 560 559 556 554 554 552 548 541 534 531 532 533 532 531 530 529 528 526 525 524 522 521 519 518 517 516 515 513 511 510 508 506 504 502 500 498 496 495 493 491 490 489 489 489 489 488 487 486
637 635 633 631 628 626 625 623 621 619 618 616 615 613 612 610 608 606 605 603 601 598 596 592 590 587 586 584 581 577 573 572 572 572 572 569 564 560 559 558 555 552 551 551 549 545 538 532 530 531 531 531 529 527 526 524 523 521 520 519 517 515 514 513 512 510 508 506 504 502 500 498 496 494 492 490 488 486 484 483 483 483 483 482 481 480
636 633 631 628 626 624 622 621 619 617 616 614 612 611 609 607 606 604 602 601 599 596 594 591 589 586 584 582 580 577 574 572 571 570 570 567 563 559 557 556 554 551 549 548 547 544 540 535 531 530 529 528 527 525 523 522 521 519 518 517 515 513 511 511 509 507 505 503 501 498 496 494 491 489 487 485 482 481 479 477 476 476 475 475 474 474
633 631 629 626 624 622 620 619 617 616 614 612 610 608 606 605 603 601 600 598 597 595 593 591 588 585 582 580 577 574 572 571 569 569 568 566 562 559 556 554 552 550 547 545 543 541 538 535 533 531 528 525 524 522 521 520 519 517 516 515 514 511 510 508 507 505 502 500 497 495 492 490 487 485 483 481 478 476 473 471 468 466 466 466 466 467
631 629 627 625 622 620 618 616 615 613 611 610 608 606 604 602 601 599 598 596 595 593 591 589 587 585 582 579 575 572 569 568 567 567 566 564 561 557 554 552 551 549 546 543 541 539 536 534 533 531 528 523 520 519 519 518 517 516 515 514 512 510 508 506 505 502 500 497 495 492 489 486 484 482 479 477 475 472 469 465 461 457 455 456 457 460
630 627 625 623 621 619 617 615 613 611 609 607 606 604 602 601 599 597 595 594 592 590 588 586 585 583 580 578 575 571 568 566 565 564 564 562 560 557 553 551 549 547 545 542 539 537 536 533 531 529 526 523 519 516 516 516 516 515 513 512 510 508 506 505 503 501 498 495 492 489 486 484 482 480 477 475 472 470 466 461 456 451 448 449 451 454
628 626 623 621 620 618 616 614 611 610 607 605 603 602 600 598 596 595 593 591 589 587 585 583 581 579 577 575 573 570 567 565 563 562 561 559 558 556 552 549 547 546 544 541 539 537 535 532 529 527 524 522 520 517 515 514 514 513 511 510 508 506 504 502 501 499 496 494 491 488 485 483 481 478 476 473 470 467 464 460 454 450 447 447 449 451
627 624 622 620 618 616 614 612 610 608 606 604 602 600 598 596 594 592 590 588 586 584 582 580 578 576 574 572 570 568 565 563 561 559 558 556 555 553 551 547 545 543 542 541 539 536 534 531 528 526 523 521 520 519 517 515 514 512 510 508 506 505 502 500 499 497 495 492 490 487 485 482 480 478 475 472 469 466 463 459 454 451 449 449 450 451
626 623 621 619 617 615 613 611 609 606 604 602 600 598 596 594 591 590 588 586 584 581 579 577 575 573 570 568 566 565 563 561 559 557 555 554 553 551 549 546 544 542 540 539 537 535 533 531 529 527 525 522 520 518 518 517 515 512 510 507 504 502 501 499 497 496 493 491 489 486 484 481 479 477 475 472 470 467 464 460 456 453 451 451 451 452
625 622 620 618 616 614 612 609 607 605 603 601 598 596 594 591 589 587 585 583 581 579 577 575 572 570 568 566 563 561 560 558 556 555 553 551 550 549 547 545 542 540 538 536 535 534 532 531 530 528 526 524 522 520 518 517 515 513 511 508 504 501 499 497 496 494 492 491 488 486 484 481 479 477 475 472 470 468 465 462 459 456 454 453 452 452
624 621 619 616 614 612 610 608 605 603 601 599 596 594 592 590 587 585 582 580 578 576 574 572 569 567 565 562 561 559 557 556 554 552 551 549 547 546 544 542 540 538 537 535 534 533 532 531 530 528 526 525 523 521 519 517 515 514 512 509 506 502 499 497 495 493 492 490 488 486 484 481 479 477 475 473 471 468 466 464 461 459 456 455 454 453
622 620 617 615 612 610 608 606 604 601 600 597 595 593 591 588 586 584 581 578 576 573 571 570 567 565 562 559 557 556 555 554 552 550 549 547 545 544 542 541 540 538 536 535 534 532 531 530 529 527 526 525 523 521 518 516 514 513 512 510 506 503 499 496 494 493 492 490 488 486 484 482 480 478 476 474 471 469 466 464 462 461 459 457 456 454
621 619 616 613 611 609 606 604 602 600 598 596 594 591 589 587 585 583 580 577 575 572 570 568 566 563 560 557 555 554 552 551 550 548 546 545 543 542 541 540 539 538 537 536 533 531 530 529 527 526 525 524 523 521 519 516 514 512 511 509 507 504 501 496 494 492 491 490 487 486 484 482 480 478 476 474 472 469 467 465 463 461 460 458 457 456
620 617 614 612 610 607 605 603 601 599 597 595 592 590 588 586 584 582 579 576 573 571 568 566 564 561 559 556 554 552 550 549 547 546 545 543 542 541 540 539 538 537 536 535 533 530 528 527 526 525 524 523 522 521 518 516 514 511 509 507 506 504 502 498 495 493 491 489 487 486 484 482 481 479 477 475 472 470 467 466 464 462 461 460 458 457
618 616 613 611 608 606 604 601 600 597 595 593 591 588 586 584 582 580 578 575 572 570 567 565 563 560 557 555 553 551 549 546 545 544 543 542 541 540 539 538 536 535 534 532 531 530 528 526 525 524 523 522 521 520 518 516 513 511 508 506 505 503 501 499 496 494 492 490 488 486 484 482 481 479 477 475 472 471 469 467 466 464 463 461 461 460
617 614 612 609 607 605 603 601 598 596 594 592 589 587 585 582 581 578 576 574 571 568 566 564 562 560 556 554 552 550 548 546 544 543 542 541 540 539 538 536 535 534 532 531 529 528 527 526 525 524 523 522 520 519 517 516 513 511 508 506 504 502 500 498 496 494 492 491 489 487 485 483 481 480 478 476 474 473 471 470 468 467 466 465 463 462
616 613 611 608 606 604 601 599 597 595 592 590 588 586 583 581 579 577 575 572 570 568 565 563 561 559 556 554 552 550 548 546 543 542 541 540 539 538 536 535 533 532 531 529 527 526 525 524 524 523 522 521 519 518 516 515 513 511 509 506 504 502 500 498 496 494 492 491 489 488 486 484 482 481 479 477 476 475 474 473 471 470 469 468 467 466
615 612 610 607 605 603 600 598 596 594 591 589 586 584 582 580 578 576 573 571 569 567 564 561 559 557 556 554 552 550 548 546 544 542 541 540 538 537 536 534 532 530 528 527 525 524 523 523 522 522 522 521 519 517 516 514 512 511 509 506 505 503 501 498 496 495 493 492 490 488 486 485 484 482 481 479 478 477 477 476 475 474 473 472 471 471
614 612 609 606 604 602 599 597 595 592 590 587 585 582 580 578 577 575 572 570 568 566 563 561 559 557 555 553 551 550 548 546 544 543 541 540 538 537 535 533 531 529 527 525 523 522 521 521 521 521 521 521 519 518 516 514 511 510 508 506 505 503 501 499 497 496 494 493 491 489 488 486 485 484 482 481 480 481 480 479 478 478 477 477 476 476
613 611 608 606 603 601 598 596 594 591 589 586 584 581 579 576 575 573 571 569 567 565 563 561 558 556 555 553 551 549 548 546 545 543 541 540 539 537 536 534 532 529 527 525 523 522 521 521 521 521 521 521 519 518 516 513 511 509 507 506 505 503 501 500 498 497 496 494 492 491 489 488 486 485 484 483 482 483 483 482 482 482 481 481 481 481
612 610 607 605 603 600 598 595 593 591 588 586 583 581 578 576 573 571 570 568 566 564 561 560 558 556 555 553 551 550 548 547 545 544 542 541 540 538 537 535 533 531 529 526 524 523 522 522 522 521 521 520 519 518 516 514 511 510 508 506 505 503 502 501 500 498 497 496 494 492 491 489 488 487 486 485 485 485 486 486 486 486 486 486 486 486